Location: Marquette
(46.5440°N, 87.3950°W)
Time: 16:33:54
(UTC-05:00)

Daily predictions for brighter satellites

Satellite Brightness Start Highest point End
(mag) Time Altitude Azimuth Time Altitude Azimuth Time Altitude Azimuth
NOSS 3-1 (A) 4.2 17:25:41 10° WSW 17:31:22 47° NW 17:37:52 10° NE
Cosmos 2279 Rocket 4.4 17:25:57 10° SSE 17:31:47 42° E 17:37:37 10° NNE
USA 215 3.3 17:26:10 10° ESE 17:32:43 87° NE 17:39:17 10° NW
Meteor 1-12 Rocket 4.4 17:27:09 10° N 17:32:44 54° ENE 17:38:21 10° SSE
Cosmos 2150 Rocket 4.5 17:27:33 10° S 17:32:45 47° ESE 17:37:57 10° NNE
Aureole 1 Rocket 4.1 17:27:05 10° NNW 17:32:53 76° ENE 17:40:22 10° SSE
Cosmos 2219 3.2 17:29:55 10° NNW 17:35:33 86° ENE 17:41:12 10° SSE
SJ 16-02 3.2 17:37:30 10° ESE 17:39:37 13° E 17:41:44 10° ENE
Cosmos 1975 Rocket 3.3 17:35:20 10° S 17:39:40 52° E 17:44:03 10° NNE
Cosmos 1271 Rocket 3.3 17:37:40 10° N 17:41:11 35° ENE 17:44:44 10° SE
ALOS 3.8 17:38:58 10° E 17:41:39 15° ENE 17:44:19 10° NNE
ERS-2 3.9 17:42:04 10° E 17:43:45 13° ENE 17:45:26 10° NNE
Okean 1 Rocket 4.0 17:40:43 10° NNW 17:45:07 54° W 17:49:29 10° S
Atlas Centaur 2 4.4 17:42:36 10° SW 17:45:24 14° S 17:47:57 10° SSE
Okean 3 4.4 17:43:53 10° SSW 17:47:57 51° WNW 17:52:06 10° N
Okean 1 3.2 17:45:41 10° S 17:49:38 73° E 17:53:36 10° NNE
Cosmos 1943 Rocket 3.8 17:48:22 10° WSW 17:53:14 29° NW 17:58:10 10° N
NOSS 2-3 (C) 4.1 17:49:23 10° SW 17:54:07 77° NW 17:59:49 10° NE
OPS 6432 4.3 17:51:12 10° SSW 17:54:46 75° SE 17:57:38 11° NE
CENTAUR R/B 3.9 17:49:30 10° NW 17:55:55 29° NNE 18:02:52 10° E
Cosmos 2297 Rocket 2.4 17:51:24 10° NNW 17:56:52 47° ENE 18:02:18 10° SE
Cosmos 1378 Rocket 4.4 17:52:36 10° SSW 17:56:58 55° WNW 18:01:21 10° N
Cosmos 724 4.5 17:51:57 10° NNW 17:57:35 48° NE 18:03:11 10° ESE
Cosmos 1484 Rocket 2.8 17:54:18 10° SSE 17:58:16 64° ENE 18:02:16 10° N
Cosmos 1666 2.6 18:00:21 10° N 18:04:04 59° E 18:07:46 10° SSE
Cosmos 1975 3.1 18:00:16 10° NNW 18:04:19 75° W 18:08:21 10° S
Abrixas rocket 2.1 18:02:14 10° WSW 18:05:30 87° SSE 18:07:55 17° ENE
Cosmos 1898 Rocket 4.1 18:01:53 10° SW 18:07:01 58° WNW 18:12:14 10° NNE
Ariane Rocket 2.9 18:02:26 10° SSE 18:07:29 79° ENE 18:12:35 10° NNW
Cosmos 1536 Rocket 4.2 18:04:03 10° SSE 18:07:56 32° E 18:11:49 10° NNE
PKM 4.3 18:01:45 10° WSW 18:08:41 71° NW 18:11:09 16° NE
CZ-2C R/B 3.9 18:03:52 10° S 18:08:48 43° W 18:13:42 10° NNW
ISS -2.9 18:05:52 10° WNW 18:09:04 49° SSW 18:12:15 10° SE
Cosmos 1634 Rocket 4.5 18:03:07 10° SSW 18:09:16 65° WNW 18:15:32 10° N
Cosmos 1269 Rocket 4.4 18:06:36 10° N 18:11:36 40° ENE 18:16:33 10° SE
Cosmos 389 Rocket 2.9 18:12:40 10° NNW 18:16:07 63° W 18:19:33 10° S
SKYMED 2 4.5 18:15:01 14° NE 18:18:03 28° E 18:21:46 10° SSE
Cosmos 1937 Rocket 3.9 18:13:18 10° SSW 18:18:26 63° WNW 18:23:33 10° NNE
Cosmos 1125 Rocket 4.1 18:13:52 10° S 18:18:43 38° ESE 18:22:43 14° NE
Meteor 2-4 Rocket 3.9 18:14:42 10° SSE 18:19:52 46° E 18:24:59 10° NNE
USA 238 DEB 3.8 18:13:47 10° NW 18:20:56 87° SW 18:28:08 10° SE
USA 238 3.8 18:13:54 10° NW 18:21:02 88° SW 18:28:14 10° SE
Meteor 1-13 Rocket 4.2 18:19:08 10° S 18:24:39 67° E 18:30:20 10° NNE
Cosmos 1048 Rocket 4.1 18:19:22 10° NNW 18:24:44 60° ENE 18:30:02 10° SE
Cosmos 1655 Rocket 4.4 18:18:30 10° NNW 18:24:52 73° W 18:31:13 10° S
CSL-04 Debris 4.5 18:20:39 10° S 18:26:01 72° WSW 18:31:26 10° NNW
CZ-4 R/B 1.2 18:22:36 10° SSE 18:26:29 87° ENE 18:30:28 10° NNW
NOAA 15 4.5 18:22:14 10° SSE 18:27:27 75° ENE 18:32:42 10° N
Cosmos 2266 Rocket 3.9 18:23:27 10° N 18:29:30 63° ENE 18:35:35 10° SSE
Gblst 52 Del rocket 4.2 18:24:57 10° WNW 18:30:30 68° NNE 18:35:04 18° E
Cosmos 2369 3.9 18:27:26 10° S 18:32:52 50° ESE 18:36:55 18° NE
Cosmos 2278 4.0 18:28:27 10° S 18:33:52 48° ESE 18:37:46 19° NE
Cosmos 2263 Rocket 4.0 18:31:35 10° N 18:33:39 13° NNE 18:33:39 13° NNE
Meteor 1-15 Rocket 4.4 18:32:06 10° N 18:37:54 51° ENE 18:43:37 10° SSE
Meteor 1-28 Rocket 3.3 18:35:14 10° N 18:39:00 79° WNW 18:42:46 10° SSW
Cosmos 372 Rocket 4.1 18:34:48 10° S 18:39:51 54° ESE 18:43:18 20° NE
NOAA 12 4.2 18:35:28 10° SE 18:40:31 49° ENE 18:45:34 10° N
Cosmos 1455 Rocket 3.7 18:37:43 10° NNW 18:42:05 58° W 18:46:23 10° S
FENGYUN 3A 3.7 18:38:23 10° SE 18:43:35 53° ENE 18:48:48 10° N
DELTA 2 R/B (1) 4.5 18:40:11 10° WSW 18:45:23 41° S 18:49:04 18° ESE
MINOTAUR IV R/B 4.4 18:40:59 10° NNW 18:45:31 79° ENE 18:49:59 10° SSE
EO 1 Del DPAF 3.6 18:45:04 36° ENE 18:45:48 40° E 18:49:24 10° S
Okean 2 4.3 18:42:16 10° SSE 18:45:16 28° ESE 18:45:16 28° ESE
METEOR-M 4.1 18:41:57 10° SSE 18:47:17 88° ENE 18:52:41 10° NNW
Cosmos 1743 4.4 18:44:00 10° NNW 18:47:35 36° W 18:51:09 10° SSW
Meteor 1-19 Rocket 4.5 18:43:36 10° SSW 18:49:16 73° WNW 18:55:06 10° N
NOSS 3-2 (A) 4.0 18:42:55 10° NW 18:50:24 86° NE 18:58:35 10° SE
MONITOR-E 3.9 18:48:49 10° SSE 18:51:51 71° ENE 18:54:55 10° N
CZ-2C R/B 3.8 18:48:16 10° NNE 18:52:58 82° WNW 18:57:42 10° SSW
MTI 3.6 18:52:34 52° NE 18:53:09 68° E 18:56:24 10° S
YAOGAN 1 2.8 18:49:08 10° S 18:53:27 70° WSW 18:57:47 10° NNW
Cosmos 1697 Rocket 3.0 18:48:56 10° S 18:54:14 43° ESE 18:56:12 32° ENE
Cosmos 1515 4.1 18:51:19 10° SSE 18:54:28 40° ESE 18:54:28 40° ESE
USA 116 3.5 18:53:45 23° N 18:55:34 65° WNW 18:58:38 10° SSW
STPSAT 2 (USA 217) 4.5 18:51:55 10° NNW 18:56:29 73° ENE 19:01:00 10° SSE
NOSS 3-2 (C) 3.9 18:49:56 10° NW 18:57:22 77° NE 19:05:33 10° SE
Cosmos 2082 4.1 18:56:03 10° NNW 19:01:37 65° WSW 19:07:10 10° SSE
COSMO-SKYMED 1 2.4 19:03:36 23° NNE 19:06:16 86° ESE 19:10:37 10° SSW
ATLAS 2AS CENTAUR R/B 3.4 18:58:28 10° SW 19:06:17 64° NW 19:12:22 19° NNE
ATLAS 3B R/B 3.5 18:59:56 10° NW 19:06:18 49° WSW 19:12:29 10° S
Landsat 4 3.8 19:04:22 27° N 19:06:22 76° WNW 19:10:10 10° SSW
FengYun 1-2 T 4.3 19:06:41 10° SE 19:12:06 52° ENE 19:17:35 10° N
NOSS 5 (C) 4.4 19:09:38 10° SW 19:13:10 77° W 19:13:10 77° W
Cosmos 2227 Rocket 3.5 19:08:46 10° NW 19:14:03 42° WSW 19:19:20 10° S
ERS-2 2.7 19:13:21 10° S 19:16:58 58° WSW 19:20:36 10° NNW
DMSP B5D1-3 4.4 19:15:09 38° NE 19:17:02 66° ESE 19:22:06 10° S
SJ 16-02 1.6 19:13:15 10° SSW 19:17:37 66° WNW 19:19:26 34° N
ALOS 2.4 19:13:51 10° S 19:18:30 75° WSW 19:23:12 10° NNW
Cosmos 1553 Rocket 4.3 19:20:33 10° SSE 19:26:05 45° ESE 19:26:05 45° ESE
NOSS 3-4 (A) 3.5 19:21:12 10° SSW 19:27:19 62° ESE 19:28:35 52° ENE
NOSS 3-4 (C) 3.5 19:21:18 10° SSW 19:27:25 61° ESE 19:28:38 52° ENE
Meteor 1-23 Rocket 4.4 19:22:56 10° SSW 19:28:41 72° WNW 19:33:48 13° N
Cosmos 1417 Rocket 4.5 19:23:35 10° SSE 19:29:33 55° E 19:30:03 53° ENE
SPOT 3 Rocket 4.0 19:26:32 10° S 19:31:39 60° WSW 19:36:46 10° NNW
Meteor 2-11 Rocket 4.3 19:26:35 10° S 19:32:44 87° E 19:37:45 16° N
Okean 1-7 Rocket 4.3 19:28:42 10° S 19:31:35 40° S 19:31:35 40° S
Cosmos 1980 Rocket 2.4 19:29:14 10° S 19:34:03 51° SE 19:34:03 51° SE
Cosmos 2297 Rocket 4.0 19:35:50 10° NW 19:40:42 30° WSW 19:45:34 10° SSW
Cosmos 1025 Rocket 3.4 19:38:46 10° SSW 19:42:41 62° WSW 19:42:41 62° WSW
COSMOS 2455 4.5 19:39:33 10° NNW 19:42:11 20° N 19:42:11 20° N
Cosmos 2251 Rocket 4.0 19:41:45 10° NNW 19:45:37 48° N 19:45:37 48° N
CENTAUR R/B 3.0 19:40:10 10° NW 19:47:58 72° NE 19:50:09 52° ESE
Cosmos 1241 Rocket 4.4 19:42:26 10° SW 19:48:49 88° NW 19:49:51 65° NNE
Cosmos 1656 4.4 19:48:55 10° SW 19:54:16 47° WNW 19:56:01 36° N
Cosmos 494 Rocket 4.4 19:52:14 10° NNW 19:57:28 62° WSW 19:58:38 49° SSW
Cosmos 2227 4.4 19:51:59 10° NNW 19:56:49 63° NNW 19:56:49 63° NNW
DNEPR-1 R/B 4.2 19:53:16 10° NW 19:58:19 72° SW 19:58:32 71° SW
Cosmos 2263 Rocket 4.1 20:13:53 10° NNW 20:15:22 18° NNW 20:15:22 18° NNW
Cosmos 1697 Rocket 4.1 20:33:11 10° WSW 20:37:59 34° WNW 20:37:59 34° WNW
ATLAS 2AS CENTAUR R/B 4.4 20:52:12 10° WNW 20:58:58 28° NNW 20:59:49 28° N
CENTAUR R/B 4.4 21:31:24 10° NW 21:37:24 33° W 21:37:24 33° W
